Location: Codford Saint Peter
(51.1597°N, 2.0531°W)
Time: 00:45:59
(UTC+00:00)

ELECTRON R/B - Pass Details

Date: 04 December 2021
Orbit: 484 x 495 km, 40.0° (Epoch: 23 January)

Event Time Altitude Azimuth Distance (km) Brightness Sun altitude
Rises 06:48:40 0° 232° (SW) 2,542 ? -9.7°
Reaches altitude 10° 06:51:36 10° 207° (SSW) 1,665 ? -9.3°
Maximum altitude 06:53:45 15° 173° (S) 1,400 ? -9.0°
Drops below altitude 10° 06:55:56 10° 138° (SE) 1,671 ? -8.7°
Sets 06:58:53 0° 114° (ESE) 2,557 ? -8.3°
